TimeEDT,TemperatureF,Dew PointF,Humidity,Sea Level PressureIn,VisibilityMPH,Wind Direction,Wind SpeedMPH,Gust SpeedMPH,PrecipitationIn,Events,Conditions,WindDirDegrees,DateUTC
12:53 AM,53.1,52.0,96,30.11,2.5,Calm,Calm,-,0.01,,Clear,0,2012-10-05 04:53:00
1:53 AM,53.1,52.0,96,30.12,2.5,Calm,Calm,-,N/A,,Clear,0,2012-10-05 05:53:00
2:23 AM,51.8,51.8,100,30.13,1.8,Calm,Calm,-,N/A,,Clear,0,2012-10-05 06:23:00
2:53 AM,52.0,51.1,97,30.12,2.0,Calm,Calm,-,N/A,,Clear,0,2012-10-05 06:53:00
3:09 AM,51.8,50.0,94,30.12,1.2,Calm,Calm,-,N/A,,Clear,0,2012-10-05 07:09:00
3:42 AM,51.8,50.0,94,30.12,2.0,Calm,Calm,-,N/A,,Clear,0,2012-10-05 07:42:00
3:53 AM,51.1,50.0,96,30.12,1.8,Calm,Calm,-,N/A,,Clear,0,2012-10-05 07:53:00
4:04 AM,51.8,50.0,94,30.12,2.0,Calm,Calm,-,N/A,,Partly Cloudy,0,2012-10-05 08:04:00
4:19 AM,51.8,50.0,94,30.12,2.0,Calm,Calm,-,N/A,,Mostly Cloudy,0,2012-10-05 08:19:00
4:41 AM,51.8,50.0,94,30.12,1.5,Calm,Calm,-,N/A,,Overcast,0,2012-10-05 08:41:00
4:45 AM,51.8,50.0,94,30.12,0.8,Calm,Calm,-,N/A,,Mist,0,2012-10-05 08:45:00
4:53 AM,51.1,50.0,96,30.12,0.2,Calm,Calm,-,N/A,Fog,Fog,0,2012-10-05 08:53:00
5:53 AM,50.0,50.0,100,30.12,0.2,Calm,Calm,-,N/A,Fog,Fog,0,2012-10-05 09:53:00
6:53 AM,51.1,50.0,96,30.12,0.2,Calm,Calm,-,N/A,Fog,Fog,0,2012-10-05 10:53:00
7:53 AM,51.1,51.1,100,30.12,0.2,Calm,Calm,-,N/A,Fog,Fog,0,2012-10-05 11:53:00
8:50 AM,53.6,53.6,100,30.13,1.2,Calm,Calm,-,N/A,,Mostly Cloudy,0,2012-10-05 12:50:00
8:53 AM,54.0,54.0,100,30.13,1.5,Calm,Calm,-,N/A,,Mostly Cloudy,0,2012-10-05 12:53:00
8:58 AM,55.4,53.6,94,30.12,2.0,Variable,3.5,-,N/A,,Scattered Clouds,0,2012-10-05 12:58:00
9:10 AM,55.4,55.4,100,30.12,3.0,Calm,Calm,-,N/A,,Clear,0,2012-10-05 13:10:00
9:53 AM,61.0,57.0,87,30.12,6.0,Calm,Calm,-,N/A,,Clear,0,2012-10-05 13:53:00
11:53 AM,71.1,59.0,66,30.07,9.0,South,4.6,-,N/A,,Clear,170,2012-10-05 15:53:00
12:53 PM,75.0,60.1,60,30.05,9.0,WSW,3.5,-,N/A,,Clear,240,2012-10-05 16:53:00
1:53 PM,77.0,57.9,52,30.01,9.0,Variable,4.6,-,N/A,,Clear,0,2012-10-05 17:53:00
2:53 PM,78.1,57.0,48,30.00,9.0,Variable,6.9,-,N/A,,Clear,0,2012-10-05 18:53:00
3:53 PM,77.0,55.9,48,29.98,9.0,Variable,4.6,-,N/A,,Clear,0,2012-10-05 19:53:00
4:53 PM,77.0,57.0,50,29.97,9.0,South,4.6,-,N/A,,Overcast,190,2012-10-05 20:53:00
5:53 PM,75.0,57.9,55,29.97,9.0,SSW,3.5,-,N/A,,Mostly Cloudy,210,2012-10-05 21:53:00
6:53 PM,70.0,59.0,68,29.96,8.0,Calm,Calm,-,N/A,,Scattered Clouds,0,2012-10-05 22:53:00
7:53 PM,64.0,60.1,87,29.96,6.0,Calm,Calm,-,N/A,,Clear,0,2012-10-05 23:53:00
8:53 PM,61.0,59.0,93,29.96,4.0,Calm,Calm,-,N/A,,Clear,0,2012-10-06 00:53:00
9:53 PM,60.1,57.9,93,29.95,5.0,Calm,Calm,-,N/A,,Clear,0,2012-10-06 01:53:00
10:53 PM,59.0,57.0,93,29.93,4.0,Calm,Calm,-,N/A,,Clear,0,2012-10-06 02:53:00
11:31 PM,57.2,57.2,100,29.92,2.5,Calm,Calm,-,0.01,,Clear,0,2012-10-06 03:31:00
11:43 PM,57.2,57.2,100,29.92,3.0,Calm,Calm,-,0.01,,Clear,0,2012-10-06 03:43:00
11:53 PM,57.9,55.9,93,29.91,4.0,Calm,Calm,-,0.01,,Clear,0,2012-10-06 03:53:00